Find Nimiq 2

NORAD ID: 27632 Int'l Des: 2002-062 Owner: TCAN Country: CA operational
HEOCIRCULARGSO

Live Position

Loading 3D Globe...

About Nimiq 2

Description loading...

Upcoming Passes

Passes for default location (London). Set your location on the main map for personalized predictions.

Altitude History

Loading altitude history...

Two-Line Element Set

1 27632U 02062A 26106.91799220 -.00000059 00000-0 00000-0 0 9999
2 27632 9.3060 57.5302 0006097 323.1274 45.7095 1.00268826 43578
Epoch: Apr 16, 2026 • Age: 16 hours

Current Status

Altitude 35781.5 km
Velocity 3.08 km/s
Sub-Earth Point -8.68°S, 109.5°W
Launch Date Dec 29, 2002
Age 23.2 years
Type other

Technical Details

Classification Payload
Mass 3600.00 kg
Dry Mass 1500.00 kg
Total Mass 3600.00 kg
Length 4.50 m
Diameter 1.80 m
Span 21.00 m
Shape Box + 2 Pan
Manufacturer LMCSS
Bus Type A2100AX
Phase Status In Orbit
Owner/State TCAN/CA

Most Searched